006  
ASUS41 KALY 170210  
RWRALY  
 
NEW YORK STATE HOURLY WEATHER ROUNDUP  
NATIONAL WEATHER SERVICE ALBANY NY  
1000 PM EDT FRI APR 16 2021  
 
NOTE: "FAIR" INDICATES FEW OR NO CLOUDS BELOW 12,000 FEET WITH NO  
SIGNIFICANT WEATHER AND/OR NO S TO VISIBILITY
.  
 
NYZ032-033-038>043-046>054-057>066-NYZ062>081-082-084-170300-  
EAST  
 
 
CITY SKY/WX TMP DP RH WIND PRES REMARKS
 
ALBANY LGT RAIN 37 35 92 NW7 29.72R WCI 32  
GLENS FALLS CLOUDY 38 34 85 N6 29.73S WCI 33  
POUGHKEEPSIE CLOUDY 43 36 76 N6 29.69R  
NEWBURGH LGT RAIN 41 41 100 CALM 29.70R  
MONTGOMERY CLOUDY 41 38 89 CALM 29.69R  
WHITE PLAINS CLOUDY 42 38 85 NW9 29.68R  
ISLIP LGT RAIN 44 40 85 W8 29.67S  
NEW YORK CITY MOCLDY 48 38 68 NW15 29.69S  
CENTRAL PARK CLOUDY 47 37 68 SW9G20 29.72R  

 
 
NYZ005>009-017-018-044>046-055-056-170300-  
CENTRAL  
 
 
CITY SKY/WX TMP DP RH WIND PRES REMARKS
 
FULTON LGT RAIN 41 38 89 NW7 29.78S  
SYRACUSE CLOUDY 41 37 86 W10 29.77S  
ROME CLOUDY 43 38 82 W5 29.75R  
ELMIRA CLOUDY 42 38 85 NW8 29.78R  
BINGHAMTON LGT RAIN 36 35 96 NW12 29.72S WCI 28  
MONTICELLO CLOUDY 39 36 89 W12 29.69R WCI 32  

 
 
NYZ026>034-041>043-087-170300-  
NORTH  
 
 
CITY SKY/WX TMP DP RH WIND PRES REMARKS
 
WATERTOWN CLOUDY 43 35 73 NE7 29.77S  
FORT DRUM NOT AVBL  
OGDENSBURG MOCLDY 43 36 75 NE13G22 29.77S  
MASSENA CLOUDY 39 32 76 NE13 29.82S WCI 31  
SARANAC LAKE CLOUDY 32 31 96 NE8 29.71S WCI 25  
PLATTSBURGH LGT RAIN 38 35 89 N12 29.79S WCI 30  

 
 
NYZ001>004-010>016-019>021-085-170300-  
WEST  
 
 
CITY SKY/WX TMP DP RH WIND PRES REMARKS
 
NIAGARA FALLS CLOUDY 40 39 97 NW8 29.83S FOG WCI 34  
BUFFALO LGT RAIN 41 38 89 NW8 29.83S FOG  
DUNKIRK CLOUDY 41 37 86 W9 29.86R  
JAMESTOWN CLOUDY 35 34 96 SW13G18 29.83S FOG WCI 26  
WELLSVILLE CLOUDY 35 34 96 W10 29.79S WCI 27  
ROCHESTER LGT RAIN 42 41 96 NW6 29.81R  
PENN YAN LGT RAIN 40 39 97 W7 29.79S  

 
 
KEY  
WCI = WIND CHILL INDEX  
VSB = VISIBILITY  
HX = HEAT INDEX  

 
 
 
CLICK HERE TO GO TO PREVIOUS BULLETINS.

The Nexlab NY Page
The Nexlab VT Page
The Nexlab MA Page
The Nexlab CT Page Main Text Page